| time (UTC) | temp C | wind direction | speed KPH | gust KPH | rain 1hr cm | rain 24hr cm | rain mn cm | humidity % | barometer mb |
| 20260507190056 | 30 | 44 | 9.7 | 19.3 | 0.00 | 0.00 | 0.00 | 69 | 1016.9 |
| 20260507184555 | 30 | 342 | 6.4 | 19.3 | 0.00 | 0.00 | 0.00 | 69 | 1017.1 |
| 20260507183051 | 30 | 32 | 12.9 | 20.9 | 0.00 | 0.00 | 0.00 | 70 | 1017.3 |
| 20260507181603 | 30 | 317 | 8.0 | 17.7 | 0.00 | 0.00 | 0.00 | 72 | 1017.5 |
| 20260507180052 | 29 | 320 | 6.4 | 20.9 | 0.00 | 0.00 | 0.00 | 77 | 1017.6 |
| 20260507174604 | 29 | 9 | 12.9 | 19.3 | 0.00 | 0.00 | 0.00 | 76 | 1017.7 |
| 20260507173100 | 30 | 327 | 6.4 | 20.9 | 0.00 | 0.00 | 0.00 | 74 | 1017.9 |
| 20260507171559 | 30 | 11 | 12.9 | 22.5 | 0.00 | 0.00 | 0.00 | 71 | 1018.4 |
| 20260507170055 | 30 | 323 | 11.3 | 20.9 | 0.00 | 0.00 | 0.00 | 68 | 1018.5 |
| 20260507164556 | 30 | 320 | 11.3 | 20.9 | 0.00 | 0.00 | 0.00 | 71 | 1018.7 |
| 20260507163058 | 30 | 319 | 12.9 | 25.7 | 0.00 | 0.00 | 0.00 | 71 | 1018.8 |
| 20260507161553 | 30 | 313 | 14.5 | 22.5 | 0.00 | 0.00 | 0.00 | 69 | 1018.9 |
| 20260507160052 | 30 | 316 | 9.7 | 17.7 | 0.00 | 0.00 | 0.00 | 71 | 1019.1 |
| 20260507154551 | 30 | 333 | 11.3 | 19.3 | 0.00 | 0.00 | 0.00 | 71 | 1019.1 |
| 20260507153059 | 30 | 316 | 8.0 | 16.1 | 0.00 | 0.00 | 0.00 | 69 | 1019.1 |
| 20260507151552 | 30 | 9 | 11.3 | 20.9 | 0.00 | 0.00 | 0.00 | 69 | 1019.1 |
| 20260507150055 | 30 | 338 | 9.7 | 19.3 | 0.00 | 0.00 | 0.00 | 67 | 1019.2 |
| 20260507144552 | 29 | 352 | 11.3 | 19.3 | 0.00 | 0.00 | 0.00 | 69 | 1019.2 |
| 20260507143055 | 29 | 15 | 9.7 | 16.1 | 0.00 | 0.00 | 0.00 | 67 | 1019.2 |
| 20260507141555 | 29 | 330 | 9.7 | 19.3 | 0.00 | 0.00 | 0.00 | 68 | 1019.4 |
| 20260507140100 | 29 | 346 | 6.4 | 16.1 | 0.00 | 0.00 | 0.00 | 70 | 1019.3 |
| 20260507134555 | 30 | 22 | 6.4 | 12.9 | 0.00 | 0.00 | 0.00 | 64 | 1019.4 |
| 20260507133056 | 30 | 32 | 1.6 | 6.4 | 0.00 | 0.00 | 0.00 | 65 | 1019.2 |
| 20260507131600 | 29 | 44 | 4.8 | 9.7 | 0.00 | 0.00 | 0.00 | 67 | 1019.2 |
| 20260507130106 | 28 | 92 | 3.2 | 9.7 | 0.00 | 0.00 | 0.00 | 69 | 1019.1 |
| 20260507124554 | 27 | 48 | 4.8 | 8.0 | 0.00 | 0.00 | 0.00 | 72 | 1019.2 |
| 20260507123056 | 27 | 107 | 1.6 | 4.8 | 0.00 | 0.00 | 0.00 | 73 | 1019.1 |
| 20260507121604 | 26 | 342 | 4.8 | 8.0 | 0.00 | 0.00 | 0.00 | 75 | 1018.9 |
| 20260507120052 | 26 | 121 | 6.4 | 12.9 | 0.00 | 0.00 | 0.00 | 76 | 1018.7 |
| 20260507114604 | 26 | 73 | 6.4 | 12.9 | 0.00 | 0.00 | 0.00 | 77 | 1018.5 |
| 20260507113054 | 25 | 111 | 1.6 | 9.7 | 0.00 | 0.00 | 0.00 | 79 | 1018.3 |
| 20260507111551 | 25 | 0 | 1.6 | 6.4 | 0.00 | 0.00 | 0.00 | 79 | 1018.3 |
| 20260507110053 | 24 | 146 | 3.2 | 9.7 | 0.00 | 0.00 | 0.00 | 80 | 1018.3 |
| 20260507104552 | 23 | 138 | 3.2 | 9.7 | 0.00 | 0.00 | 0.00 | 82 | 1018.3 |
| 20260507103052 | 23 | 186 | 3.2 | 11.3 | 0.00 | 0.00 | 0.00 | 83 | 1018.3 |
| 20260507101600 | 23 | 159 | 3.2 | 9.7 | 0.00 | 0.00 | 0.00 | 84 | 1018.1 |
| 20260507100049 | 23 | 119 | 0.0 | 9.7 | 0.00 | 0.00 | 0.00 | 82 | 1017.9 |
| 20260507094549 | 23 | 89 | 3.2 | 12.9 | 0.00 | 0.00 | 0.00 | 82 | 1017.7 |
| 20260507093055 | 23 | 111 | 3.2 | 6.4 | 0.00 | 0.00 | 0.00 | 83 | 1017.5 |
| 20260507091557 | 23 | 132 | 1.6 | 9.7 | 0.00 | 0.00 | 0.00 | 84 | 1017.5 |
| 20260507090057 | 22 | 0 | 1.6 | 6.4 | 0.00 | 0.00 | 0.00 | 86 | 1017.6 |
| 20260507084555 | 23 | 103 | 1.6 | 4.8 | 0.00 | 0.00 | 0.00 | 86 | 1017.7 |
| 20260507083053 | 23 | 142 | 0.0 | 3.2 | 0.00 | 0.00 | 0.00 | 86 | 1017.8 |
| 20260507081600 | 23 | 79 | 1.6 | 3.2 | 0.00 | 0.00 | 0.00 | 85 | 1017.8 |
| 20260507080057 | 23 | 144 | 0.0 | 4.8 | 0.00 | 0.00 | 0.00 | 85 | 1017.7 |
| 20260507074602 | 23 | 0 | 0.0 | 12.9 | 0.00 | 0.00 | 0.00 | 85 | 1017.8 |
| 20260507073052 | 23 | 0 | 0.0 | 4.8 | 0.00 | 0.00 | 0.00 | 87 | 1017.8 |
| 20260507071551 | 23 | 99 | 1.6 | 8.0 | 0.00 | 0.00 | 0.00 | 89 | 1017.9 |
| 20260507070057 | 23 | 109 | 1.6 | 6.4 | 0.00 | 0.00 | 0.00 | 89 | 1018.0 |
| 20260507064555 | 23 | 120 | 6.4 | 14.5 | 0.00 | 0.00 | 0.00 | 89 | 1018.1 |
| 20260507063053 | 23 | 121 | 8.0 | 16.1 | 0.00 | 0.00 | 0.00 | 89 | 1018.2 |
| 20260507061556 | 23 | 107 | 8.0 | 14.5 | 0.00 | 0.00 | 0.00 | 89 | 1018.4 |
| 20260507060052 | 24 | 90 | 8.0 | 11.3 | 0.00 | 0.00 | 0.00 | 90 | 1018.5 |
| 20260507054628 | 25 | 104 | 6.4 | 11.3 | 0.00 | 0.00 | 0.00 | 90 | 1018.8 |
| 20260507053053 | 25 | 94 | 4.8 | 12.9 | 0.00 | 0.00 | 0.00 | 89 | 1018.9 |
| 20260507051549 | 26 | 107 | 3.2 | 6.4 | 0.00 | 0.00 | 0.00 | 88 | 1019.0 |
| 20260507050056 | 26 | 0 | 0.0 | 3.2 | 0.00 | 0.00 | 0.00 | 88 | 1019.2 |
| 20260507044554 | 26 | 167 | 1.6 | 3.2 | 0.00 | 0.00 | 0.00 | 88 | 1019.4 |
| 20260507043053 | 26 | 198 | 1.6 | 4.8 | 0.00 | 0.00 | 0.00 | 89 | 1019.6 |
| 20260507041559 | 26 | 0 | 0.0 | 0.0 | 0.00 | 0.00 | 0.00 | 88 | 1019.7 |
| 20260507040055 | 26 | 0 | 0.0 | 3.2 | 0.00 | 0.00 | 0.00 | 88 | 1019.8 |
| 20260507034558 | 26 | 190 | 1.6 | 4.8 | 0.00 | 0.00 | 0.00 | 88 | 1020.0 |
| 20260507033053 | 26 | 205 | 1.6 | 3.2 | 0.00 | 0.00 | 0.00 | 87 | 1020.1 |
| 20260507031604 | 26 | 0 | 0.0 | 0.0 | 0.00 | 0.00 | 0.00 | 87 | 1020.2 |
| 20260507030054 | 26 | 0 | 0.0 | 0.0 | 0.00 | 0.00 | 0.00 | 87 | 1020.2 |
| 20260507024549 | 26 | 0 | 0.0 | 0.0 | 0.00 | 0.00 | 0.00 | 86 | 1020.3 |
| 20260507023104 | 26 | 0 | 0.0 | 0.0 | 0.00 | 0.00 | 0.00 | 85 | 1020.3 |
| 20260507021550 | 27 | 0 | 0.0 | 0.0 | 0.00 | 0.00 | 0.00 | 85 | 1020.2 |
| 20260507020057 | 27 | 0 | 0.0 | 0.0 | 0.00 | 0.00 | 0.00 | 85 | 1020.2 |
| 20260507014601 | 26 | 134 | 0.0 | 3.2 | 0.00 | 0.00 | 0.00 | 85 | 1020.0 |
| 20260507013051 | 27 | 0 | 0.0 | 3.2 | 0.00 | 0.00 | 0.00 | 84 | 1019.8 |
| 20260507011551 | 27 | 0 | 1.6 | 6.4 | 0.00 | 0.00 | 0.00 | 83 | 1019.8 |
| 20260507010052 | 27 | 98 | 1.6 | 6.4 | 0.00 | 0.00 | 0.00 | 83 | 1019.7 |
| 20260507004554 | 27 | 0 | 1.6 | 6.4 | 0.00 | 0.00 | 0.00 | 83 | 1019.5 |
| 20260507003053 | 27 | 101 | 1.6 | 3.2 | 0.00 | 0.00 | 0.00 | 82 | 1019.6 |
| 20260507001559 | 27 | 0 | 3.2 | 4.8 | 0.00 | 0.00 | 0.00 | 81 | 1019.3 |
| 20260507000051 | 27 | 88 | 3.2 | 6.4 | 0.00 | 0.00 | 0.00 | 81 | 1019.2 |
| 20260506234551 | 27 | 65 | 4.8 | 8.0 | 0.00 | 0.00 | 0.00 | 80 | 1019.2 |
| 20260506233109 | 27 | 90 | 1.6 | 11.3 | 0.00 | 0.00 | 0.00 | 79 | 1018.9 |
| 20260506231553 | 28 | 73 | 1.6 | 6.4 | 0.00 | 0.00 | 0.00 | 77 | 1018.8 |
| 20260506230052 | 28 | 57 | 4.8 | 9.7 | 0.00 | 0.00 | 0.00 | 74 | 1018.5 |
| 20260506224552 | 28 | 341 | 6.4 | 14.5 | 0.00 | 0.00 | 0.00 | 74 | 1018.3 |
| 20260506223050 | 28 | 36 | 8.0 | 17.7 | 0.00 | 0.00 | 0.00 | 74 | 1018.2 |
| 20260506221552 | 28 | 350 | 9.7 | 14.5 | 0.00 | 0.00 | 0.00 | 74 | 1018.1 |
| 20260506220052 | 28 | 22 | 11.3 | 16.1 | 0.00 | 0.00 | 0.00 | 73 | 1017.8 |
| 20260506214552 | 29 | 296 | 6.4 | 17.7 | 0.00 | 0.00 | 0.00 | 73 | 1017.7 |
| 20260506213112 | 29 | 11 | 8.0 | 19.3 | 0.00 | 0.00 | 0.00 | 72 | 1017.7 |
| 20260506211551 | 29 | 28 | 9.7 | 19.3 | 0.00 | 0.00 | 0.00 | 72 | 1017.6 |
| 20260506210100 | 30 | 29 | 8.0 | 16.1 | 0.00 | 0.00 | 0.00 | 71 | 1017.7 |
| 20260506204558 | 30 | 352 | 8.0 | 19.3 | 0.00 | 0.00 | 0.00 | 72 | 1017.4 |
| 20260506203052 | 30 | 349 | 11.3 | 20.9 | 0.00 | 0.00 | 0.00 | 71 | 1017.5 |
| 20260506201553 | 30 | 23 | 6.4 | 17.7 | 0.00 | 0.00 | 0.00 | 70 | 1017.5 |
| 20260506200055 | 30 | 360 | 8.0 | 17.7 | 0.00 | 0.00 | 0.00 | 69 | 1017.7 |
| 20260506194621 | 30 | 351 | 9.7 | 19.3 | 0.00 | 0.00 | 0.00 | 67 | 1017.8 |
| 20260506193100 | 30 | 24 | 3.2 | 24.1 | 0.00 | 0.00 | 0.00 | 68 | 1017.9 |
| 20260506191551 | 30 | 21 | 9.7 | 16.1 | 0.00 | 0.00 | 0.00 | 68 | 1017.9 |